| time (UTC) | temp C | wind direction | speed KPH | gust KPH | rain 1hr cm | rain 24hr cm | rain mn cm | humidity % | barometer mb |
| 20260504050110 | 14 | 137 | 19.3 | 22.5 | 0.00 | 0.00 | 0.00 | 48 | 1016.3 |
| 20260504045110 | 13 | 134 | 9.7 | 19.3 | 0.00 | 0.00 | 0.00 | 48 | 1016.2 |
| 20260504044111 | 13 | 164 | 11.3 | 20.9 | 0.00 | 0.00 | 0.00 | 49 | 1016.2 |
| 20260504043110 | 13 | 159 | 12.9 | 20.9 | 0.00 | 0.00 | 0.00 | 50 | 1016.1 |
| 20260504042110 | 12 | 144 | 12.9 | 19.3 | 0.00 | 0.00 | 0.00 | 50 | 1016.1 |
| 20260504041110 | 12 | 152 | 11.3 | 20.9 | 0.00 | 0.00 | 0.00 | 50 | 1015.9 |
| 20260504040110 | 12 | 133 | 14.5 | 19.3 | 0.00 | 0.00 | 0.00 | 49 | 1016.1 |
| 20260504035111 | 12 | 159 | 9.7 | 20.9 | 0.00 | 0.00 | 0.00 | 49 | 1016.1 |
| 20260504034110 | 12 | 150 | 11.3 | 22.5 | 0.00 | 0.00 | 0.00 | 49 | 1016.1 |
| 20260504033110 | 12 | 151 | 9.7 | 22.5 | 0.00 | 0.00 | 0.00 | 48 | 1016.2 |
| 20260504032110 | 13 | 136 | 14.5 | 25.7 | 0.00 | 0.00 | 0.00 | 48 | 1016.0 |
| 20260504031110 | 13 | 159 | 17.7 | 29.0 | 0.00 | 0.00 | 0.00 | 48 | 1015.9 |
| 20260504030110 | 13 | 152 | 19.3 | 27.4 | 0.00 | 0.00 | 0.00 | 48 | 1015.8 |
| 20260504025110 | 13 | 144 | 20.9 | 29.0 | 0.00 | 0.00 | 0.00 | 47 | 1016.0 |
| 20260504024110 | 13 | 155 | 19.3 | 33.8 | 0.00 | 0.00 | 0.00 | 47 | 1016.1 |
| 20260504023110 | 13 | 160 | 17.7 | 32.2 | 0.00 | 0.00 | 0.00 | 47 | 1016.1 |
| 20260504022110 | 13 | 155 | 20.9 | 30.6 | 0.00 | 0.00 | 0.00 | 47 | 1016.3 |
| 20260504021110 | 13 | 173 | 16.1 | 33.8 | 0.00 | 0.00 | 0.00 | 47 | 1016.1 |
| 20260504020110 | 13 | 144 | 14.5 | 29.0 | 0.00 | 0.00 | 0.00 | 47 | 1016.1 |
| 20260504015110 | 13 | 140 | 20.9 | 29.0 | 0.00 | 0.00 | 0.00 | 46 | 1016.2 |
| 20260504014110 | 13 | 131 | 19.3 | 27.4 | 0.00 | 0.00 | 0.00 | 46 | 1016.1 |
| 20260504013110 | 13 | 155 | 24.1 | 32.2 | 0.00 | 0.00 | 0.00 | 46 | 1016.1 |
| 20260504012110 | 13 | 134 | 20.9 | 25.7 | 0.00 | 0.00 | 0.00 | 46 | 1016.2 |
| 20260504011110 | 13 | 146 | 16.1 | 17.7 | 0.00 | 0.00 | 0.00 | 46 | 1016.1 |
| 20260504005114 | 13 | 148 | 16.1 | 27.4 | 0.00 | 0.00 | 0.00 | 46 | 1015.9 |
| 20260504004114 | 13 | 114 | 17.7 | 27.4 | 0.00 | 0.00 | 0.00 | 45 | 1016.0 |
| 20260504003114 | 13 | 133 | 19.3 | 27.4 | 0.00 | 0.00 | 0.00 | 45 | 1016.0 |
| 20260504002114 | 13 | 136 | 16.1 | 25.7 | 0.00 | 0.00 | 0.00 | 46 | 1016.0 |
| 20260504001114 | 13 | 148 | 17.7 | 27.4 | 0.00 | 0.00 | 0.00 | 46 | 1016.1 |
| 20260504000114 | 13 | 146 | 19.3 | 25.7 | 0.00 | 0.00 | 0.00 | 45 | 1016.1 |
| 20260503235113 | 13 | 155 | 17.7 | 27.4 | 0.00 | 0.00 | 0.00 | 45 | 1016.2 |
| 20260503234114 | 13 | 119 | 16.1 | 24.1 | 0.00 | 0.00 | 0.00 | 44 | 1016.3 |
| 20260503233113 | 13 | 137 | 17.7 | 22.5 | 0.00 | 0.00 | 0.00 | 44 | 1016.3 |
| 20260503232113 | 13 | 133 | 19.3 | 24.1 | 0.00 | 0.00 | 0.00 | 43 | 1016.4 |
| 20260503231114 | 13 | 134 | 17.7 | 25.7 | 0.00 | 0.00 | 0.00 | 43 | 1016.4 |
| 20260503230113 | 13 | 152 | 17.7 | 25.7 | 0.00 | 0.00 | 0.00 | 43 | 1016.5 |
| 20260503225113 | 13 | 149 | 12.9 | 27.4 | 0.00 | 0.00 | 0.00 | 43 | 1016.6 |
| 20260503224113 | 13 | 146 | 17.7 | 25.7 | 0.00 | 0.00 | 0.00 | 43 | 1016.7 |
| 20260503223113 | 13 | 360 | 17.7 | 22.5 | 0.00 | 0.00 | 0.00 | 43 | 1016.7 |
| 20260503222113 | 13 | 150 | 16.1 | 22.5 | 0.00 | 0.00 | 0.00 | 42 | 1016.7 |
| 20260503221113 | 13 | 132 | 14.5 | 20.9 | 0.00 | 0.00 | 0.00 | 42 | 1016.8 |
| 20260503220113 | 14 | 148 | 12.9 | 19.3 | 0.00 | 0.00 | 0.00 | 41 | 1016.9 |
| 20260503215113 | 14 | 180 | 14.5 | 19.3 | 0.00 | 0.00 | 0.00 | 41 | 1016.9 |
| 20260503214113 | 14 | 148 | 16.1 | 19.3 | 0.00 | 0.00 | 0.00 | 40 | 1016.8 |
| 20260503213113 | 15 | 175 | 14.5 | 20.9 | 0.00 | 0.00 | 0.00 | 39 | 1017.0 |
| 20260503212113 | 15 | 150 | 14.5 | 19.3 | 0.00 | 0.00 | 0.00 | 39 | 1017.0 |
| 20260503211113 | 15 | 150 | 14.5 | 19.3 | 0.00 | 0.00 | 0.00 | 38 | 1017.0 |
| 20260503210113 | 15 | 159 | 11.3 | 19.3 | 0.00 | 0.00 | 0.00 | 38 | 1017.0 |
| 20260503205113 | 15 | 148 | 14.5 | 19.3 | 0.00 | 0.00 | 0.00 | 38 | 1016.9 |
| 20260503204113 | 15 | 147 | 9.7 | 19.3 | 0.00 | 0.00 | 0.00 | 37 | 1016.9 |
| 20260503203113 | 16 | 155 | 14.5 | 17.7 | 0.00 | 0.00 | 0.00 | 36 | 1016.9 |
| 20260503202113 | 16 | 146 | 11.3 | 17.7 | 0.00 | 0.00 | 0.00 | 35 | 1017.1 |
| 20260503201113 | 16 | 131 | 14.5 | 17.7 | 0.00 | 0.00 | 0.00 | 35 | 1017.2 |
| 20260503200113 | 17 | 134 | 14.5 | 20.9 | 0.00 | 0.00 | 0.00 | 34 | 1017.2 |
| 20260503195113 | 17 | 159 | 16.1 | 24.1 | 0.00 | 0.00 | 0.00 | 34 | 1017.2 |
| 20260503194113 | 17 | 137 | 17.7 | 25.7 | 0.00 | 0.00 | 0.00 | 34 | 1017.1 |
| 20260503193113 | 17 | 360 | 16.1 | 27.4 | 0.00 | 0.00 | 0.00 | 34 | 1017.3 |
| 20260503192113 | 17 | 132 | 17.7 | 25.7 | 0.00 | 0.00 | 0.00 | 34 | 1017.2 |
| 20260503191113 | 17 | 145 | 14.5 | 22.5 | 0.00 | 0.00 | 0.00 | 34 | 1017.2 |
| 20260503190113 | 18 | 169 | 16.1 | 20.9 | 0.00 | 0.00 | 0.00 | 33 | 1017.2 |
| 20260503185113 | 18 | 140 | 14.5 | 20.9 | 0.00 | 0.00 | 0.00 | 33 | 1017.1 |
| 20260503184113 | 18 | 140 | 11.3 | 19.3 | 0.00 | 0.00 | 0.00 | 33 | 1017.0 |
| 20260503183113 | 19 | 146 | 11.3 | 22.5 | 0.00 | 0.00 | 0.00 | 32 | 1017.0 |
| 20260503182112 | 19 | 121 | 12.9 | 22.5 | 0.00 | 0.00 | 0.00 | 32 | 1016.9 |
| 20260503181112 | 20 | 131 | 14.5 | 19.3 | 0.00 | 0.00 | 0.00 | 31 | 1016.8 |
| 20260503180112 | 20 | 146 | 14.5 | 20.9 | 0.00 | 0.00 | 0.00 | 30 | 1016.7 |
| 20260503175112 | 21 | 135 | 16.1 | 24.1 | 0.00 | 0.00 | 0.00 | 29 | 1016.6 |
| 20260503174113 | 21 | 127 | 17.7 | 24.1 | 0.00 | 0.00 | 0.00 | 28 | 1016.5 |
| 20260503173112 | 21 | 146 | 19.3 | 32.2 | 0.00 | 0.00 | 0.00 | 27 | 1016.4 |
| 20260503172112 | 22 | 126 | 17.7 | 27.4 | 0.00 | 0.00 | 0.00 | 25 | 1016.3 |
| 20260503171112 | 22 | 117 | 19.3 | 30.6 | 0.00 | 0.00 | 0.00 | 25 | 1016.2 |
| 20260503170112 | 22 | 142 | 24.1 | 38.6 | 0.00 | 0.00 | 0.00 | 24 | 1016.3 |
| 20260503160112 | 24 | 142 | 24.1 | 33.8 | 0.00 | 0.00 | 0.00 | 22 | 1016.2 |
| 20260503150112 | 25 | 144 | 20.9 | 37.0 | 0.00 | 0.00 | 0.00 | 20 | 1016.6 |
| 20260503140112 | 25 | 121 | 30.6 | 40.2 | 0.00 | 0.00 | 0.00 | 22 | 1017.1 |
| 20260503131112 | 25 | 161 | 16.1 | 35.4 | 0.00 | 0.00 | 0.00 | 22 | 1017.9 |
| 20260503130112 | 25 | 121 | 29.0 | 38.6 | 0.00 | 0.00 | 0.00 | 22 | 1018.0 |
| 20260503120111 | 25 | 138 | 22.5 | 41.8 | 0.00 | 0.00 | 0.00 | 25 | 1018.9 |
| 20260503110112 | 23 | 117 | 22.5 | 37.0 | 0.00 | 0.00 | 0.00 | 28 | 1019.5 |
| 20260503100111 | 22 | 155 | 20.9 | 37.0 | 0.00 | 0.00 | 0.00 | 28 | 1020.2 |
| 20260503090111 | 21 | 134 | 24.1 | 40.2 | 0.00 | 0.00 | 0.00 | 30 | 1020.5 |
| 20260503081111 | 20 | 144 | 19.3 | 32.2 | 0.00 | 0.00 | 0.00 | 29 | 1020.7 |
| 20260503080111 | 20 | 147 | 19.3 | 33.8 | 0.00 | 0.00 | 0.00 | 31 | 1020.8 |
| 20260503072111 | 18 | 180 | 22.5 | 35.4 | 0.00 | 0.00 | 0.00 | 32 | 1020.6 |
| 20260503071111 | 18 | 140 | 19.3 | 37.0 | 0.00 | 0.00 | 0.00 | 32 | 1020.5 |
| 20260503070111 | 18 | 157 | 22.5 | 38.6 | 0.00 | 0.00 | 0.00 | 34 | 1020.6 |
| 20260503060111 | 15 | 118 | 17.7 | 30.6 | 0.00 | 0.00 | 0.00 | 45 | 1020.3 |